This demonstration page uses our WeatherBlox Daily Observations layout. Learn more.

Left ArrowRight Arrow

Hourly Observations for July 25, 2022

Temp ( °F °C ) Dew Point ( °F °C ) Humidity (%) Winds ( mph kmh ) Pressure ( in mb ) Visibility ( mi km ) Precip ( " mm )
12:53 am 00:53 Clear with Mist and Fog 52 11.1 50 10 93 93 Calm 30.08 1019 3 5 0.00 0.00
1:44 am 01:44 Mostly Clear with Mist and Fog 51 10.6 49 9.4 92 92 Calm 30.08 1019 2 3 0.00 0.00
1:51 am 01:51 Mostly Clear with Mist and Fog 52 11 48 9 88 88 Calm 30.06 1018 1 2 0.00 0.00
1:53 am 01:53 Mostly Clear with Mist and Fog 51 10.6 50 10 96 96 Calm 30.12 1020 1 2 0.00 0.00
1:57 am 01:57 Mostly Clear with Mist and Fog 51 10.6 50 10 96 96 Calm 30.08 1019 4 6 0.00 0.00
2:00 am 02:00 Mostly Clear with Mist and Fog 50 10 49 9.4 96 96 Calm 30.09 1019 2 2 0.00 0.00
2:02 am 02:02 Mostly Cloudy with Mist and Fog 50 10 48 8.9 93 93 Calm 30.08 1019 1 1 0.00 0.00
2:14 am 02:14 Mostly Clear with Mist and Fog 50 10 48 8.9 93 93 SW 3 6 30.08 1019 2 3 0.00 0.00
2:21 am 02:21 Mostly Clear 50 10 48 8.9 93 93 Calm 30.09 1019 9 14 0.00 0.00
2:53 am 02:53 Mostly Cloudy with Mist and Fog 49 9.4 48 8.9 97 97 Calm 30.13 1020 1 2 0.00 0.00
3:00 am 03:00 Mostly Cloudy with Fog 49 9.4 48 8.9 97 97 Calm 30.11 1020 1 1 0.00 0.00
3:09 am 03:09 Mostly Cloudy with Fog 50 10 48 8.9 93 93 Calm 30.09 1019 0 0 0.00 0.00
3:17 am 03:17 Mostly Cloudy with Mist and Fog 51 10.6 49 9.4 92 92 Calm 30.08 1019 1 2 0.00 0.00
3:20 am 03:20 Mostly Cloudy with Mist and Fog 51 10.6 50 10 96 96 Calm 30.08 1019 3 4 0.00 0.00
3:22 am 03:22 Partly Cloudy with Mist and Fog 50 10 49 9.4 96 96 Calm 30.09 1019 4 6 0.00 0.00
3:53 am 03:53 Clear 49 9.4 47 8.3 93 93 Calm 30.14 1021 10 16 0.00 0.00
4:38 am 04:38 Mostly Clear with Mist and Fog 47 8.3 46 7.8 97 97 Calm 30.12 1020 1 2 0.00 0.00
4:45 am 04:45 Mostly Cloudy with Fog 48 8.9 46 7.8 93 93 Calm 30.12 1020 1 1 0.00 0.00
4:53 am 04:53 Mostly Cloudy with Fog 47 8.3 46 7.8 97 97 Calm 30.14 1021 0 0 0.00 0.00
5:03 am 05:03 Mostly Cloudy with Mist and Fog 48 8.9 46 7.8 93 93 SSW 5 7 30.12 1020 1 2 0.00 0.00
5:15 am 05:15 Mostly Cloudy with Fog 48 8.9 46 7.8 93 93 Calm 30.12 1020 1 1 0.00 0.00
5:24 am 05:24 Mostly Cloudy with Fog 48 8.9 46 7.8 93 93 WSW 3 6 30.11 1020 0 0 0.00 0.00
5:33 am 05:33 Mostly Cloudy with Mist and Fog 48 8.9 47 8.3 96 96 SW 3 6 30.12 1020 1 2 0.00 0.00
5:36 am 05:36 Partly Cloudy with Mist and Fog 48 8.9 47 8.3 96 96 SSW 3 6 30.12 1020 2 3 0.00 0.00
5:44 am 05:44 Mostly Clear with Mist and Fog 47 8.3 45 7.2 93 93 Calm 30.13 1020 2 2 0.00 0.00
5:49 am 05:49 Mostly Clear with Mist and Fog 48 9 46 8 94 94 Calm 30.12 1020 4 6 0.00 0.00
5:53 am 05:53 Clear 47 8.3 46 7.8 97 97 Calm 30.14 1021 8 13 0.00 0.00
6:08 am 06:08 Sunny with Mist and Fog 48 8.9 46 7.8 93 93 Calm 30.12 1020 3 4 0.00 0.00
6:17 am 06:17 Sunny with Mist and Fog 48 8.9 46 7.8 93 93 Calm 30.12 1020 3 5 0.00 0.00
6:53 am 06:53 Sunny with Mist and Fog 50 10 49 9.4 96 96 Calm 30.14 1021 6 10 0.00 0.00
7:53 am 07:53 Sunny 54 12.2 52 11.1 93 93 WSW 3 6 30.13 1020 10 16 0.00 0.00
8:53 am 08:53 Sunny 63 17.2 56 13.3 78 78 Calm 30.10 1019 10 16 0.00 0.00
9:53 am 09:53 Sunny 69 20.6 55 12.8 61 61 VRB 5 7 30.10 1019 10 16 0.00 0.00
10:53 am 10:53 Sunny 73 22.8 56 13.3 55 55 NNE 5 7 30.08 1019 10 16 0.00 0.00
11:53 am 11:53 Sunny 77 25 56 13.3 48 48 NNW 5 7 30.06 1018 10 16 0.00 0.00
12:53 pm 12:53 Sunny 79 26.1 56 13.3 45 45 Calm 30.03 1017 10 16 0.00 0.00
1:53 pm 13:53 Sunny 83 28.3 51 10.6 33 33 WNW 3 6 29.99 1016 10 16 0.00 0.00
2:53 pm 14:53 Sunny 86 30 38 3.3 18 18 VRB 7 11 29.96 1015 10 16 0.00 0.00
3:53 pm 15:53 Sunny 87 30.6 35 1.7 16 16 VRB 7 11 29.93 1014 10 16 0.00 0.00
4:53 pm 16:53 Sunny 85 29.4 36 2.2 17 17 Calm 29.93 1014 10 16 0.00 0.00
5:53 pm 17:53 Sunny 84 28.9 35 1.7 17 17 SW 3 6 29.91 1013 10 16 0.00 0.00
6:53 pm 18:53 Sunny 83 28.3 41 5 23 23 SSW 7 11 29.89 1012 10 16 0.00 0.00
7:53 pm 19:53 Sunny 78 25.6 41 5 27 27 SSW 6 9 29.90 1012 10 16 0.00 0.00
8:53 pm 20:53 Clear 66 18.9 53 11.7 63 63 Calm 29.91 1013 10 16 0.00 0.00
9:53 pm 21:53 Clear 63 17.2 45 7.2 52 52 Calm 29.92 1013 10 16 0.00 0.00
10:53 pm 22:53 Clear 62 16.7 46 7.8 56 56 Calm 29.92 1013 10 16 0.00 0.00
11:53 pm 23:53 Mostly Clear 59 15 47 8.3 64 64 Calm 29.93 1014 10 16 0.00 0.00

Powered by AerisWeather